| time (UTC) | temp F | wind direction | speed MPH | gust MPH | rain 1hr in | rain 24hr in | rain mn in | humidity % | barometer mb |
| 20260508154315 | 63 | 45 | 5.0 | 6.0 | 0.00 | 0.00 | 0.00 | 60 | 1004.4 |
| 20260508153811 | 64 | 45 | 7.0 | 8.0 | 0.00 | 0.00 | 0.00 | 61 | 1004.4 |
| 20260508153309 | 64 | 90 | 5.0 | 6.0 | 0.00 | 0.00 | 0.00 | 61 | 1004.7 |
| 20260508152804 | 64 | 0 | 3.0 | 5.0 | 0.00 | 0.00 | 0.00 | 61 | 1004.4 |
| 20260508152305 | 64 | 45 | 6.0 | 11.0 | 0.00 | 0.00 | 0.00 | 61 | 1004.4 |
| 20260508151757 | 64 | 45 | 9.0 | 10.0 | 0.00 | 0.00 | 0.00 | 62 | 1004.4 |
| 20260508151254 | 65 | 45 | 5.0 | 6.0 | 0.00 | 0.00 | 0.00 | 62 | 1004.0 |
| 20260508150751 | 65 | 45 | 6.0 | 7.0 | 0.00 | 0.00 | 0.00 | 62 | 1004.4 |
| 20260508150248 | 65 | 0 | 5.0 | 8.0 | 0.00 | 0.00 | 0.00 | 63 | 1004.4 |
| 20260508145743 | 65 | 90 | 4.0 | 5.0 | 0.00 | 0.00 | 0.00 | 63 | 1004.4 |
| 20260508145240 | 66 | 45 | 4.0 | 5.0 | 0.00 | 0.00 | 0.00 | 63 | 1004.0 |
| 20260508144737 | 66 | 45 | 7.0 | 8.0 | 0.00 | 0.00 | 0.00 | 65 | 1004.0 |
| 20260508144235 | 66 | 45 | 4.0 | 6.0 | 0.00 | 0.00 | 0.00 | 65 | 1004.0 |
| 20260508143732 | 66 | 45 | 9.0 | 10.0 | 0.00 | 0.00 | 0.00 | 65 | 1004.0 |
| 20260508143229 | 67 | 90 | 4.0 | 5.0 | 0.00 | 0.00 | 0.00 | 67 | 1004.0 |
| 20260508142725 | 67 | 45 | 5.0 | 7.0 | 0.00 | 0.00 | 0.00 | 67 | 1004.0 |
| 20260508142222 | 67 | 0 | 6.0 | 7.0 | 0.00 | 0.00 | 0.00 | 68 | 1003.7 |
| 20260508141719 | 67 | 90 | 7.0 | 10.0 | 0.00 | 0.00 | 0.00 | 69 | 1003.7 |
| 20260508141217 | 67 | 0 | 5.0 | 7.0 | 0.00 | 0.00 | 0.00 | 70 | 1003.7 |
| 20260508140714 | 67 | 45 | 6.0 | 8.0 | 0.00 | 0.00 | 0.00 | 71 | 1003.3 |
| 20260508140210 | 66 | 45 | 8.0 | 10.0 | 0.00 | 0.00 | 0.00 | 72 | 1003.3 |
| 20260508135706 | 66 | 45 | 4.0 | 5.0 | 0.00 | 0.00 | 0.00 | 73 | 1003.3 |
| 20260508135202 | 66 | 45 | 3.0 | 4.0 | 0.00 | 0.00 | 0.00 | 73 | 1003.3 |
| 20260508134658 | 66 | 90 | 0.0 | 1.0 | 0.00 | 0.00 | 0.00 | 73 | 1003.3 |
| 20260508134155 | 66 | 315 | 3.0 | 5.0 | 0.00 | 0.00 | 0.00 | 71 | 1003.3 |
| 20260508133652 | 67 | 135 | 0.0 | 0.0 | 0.00 | 0.00 | 0.00 | 71 | 1003.3 |
| 20260508133150 | 67 | 90 | 0.0 | 0.0 | 0.00 | 0.00 | 0.00 | 71 | 1002.9 |
| 20260508132647 | 67 | 90 | 0.0 | 0.0 | 0.00 | 0.00 | 0.00 | 70 | 1002.9 |
| 20260508132144 | 67 | 0 | 0.0 | 1.0 | 0.00 | 0.00 | 0.00 | 70 | 1002.9 |
| 20260508131640 | 68 | 270 | 1.0 | 1.0 | 0.00 | 0.00 | 0.00 | 70 | 1002.6 |
| 20260508131136 | 68 | 270 | 1.0 | 2.0 | 0.00 | 0.00 | 0.00 | 69 | 1002.6 |
| 20260508130633 | 68 | 270 | 2.0 | 3.0 | 0.00 | 0.00 | 0.00 | 69 | 1002.6 |
| 20260508130130 | 69 | 270 | 2.0 | 2.0 | 0.00 | 0.00 | 0.00 | 69 | 1002.6 |
| 20260508125625 | 69 | 270 | 1.0 | 2.0 | 0.00 | 0.00 | 0.00 | 68 | 1002.6 |
| 20260508125123 | 69 | 270 | 2.0 | 2.0 | 0.00 | 0.00 | 0.00 | 68 | 1002.6 |
| 20260508124621 | 69 | 270 | 2.0 | 2.0 | 0.00 | 0.00 | 0.00 | 68 | 1002.2 |
| 20260508124118 | 69 | 270 | 4.0 | 5.0 | 0.00 | 0.00 | 0.00 | 68 | 1002.6 |
| 20260508123616 | 69 | 270 | 3.0 | 5.0 | 0.00 | 0.00 | 0.00 | 68 | 1002.2 |
| 20260508123113 | 69 | 270 | 3.0 | 4.0 | 0.00 | 0.00 | 0.00 | 68 | 1002.6 |
| 20260508122609 | 70 | 270 | 5.0 | 6.0 | 0.00 | 0.00 | 0.00 | 68 | 1002.2 |
| 20260508122107 | 70 | 225 | 3.0 | 4.0 | 0.00 | 0.00 | 0.00 | 68 | 1002.2 |
| 20260508121605 | 70 | 225 | 5.0 | 5.0 | 0.00 | 0.00 | 0.00 | 67 | 1002.6 |
| 20260508121102 | 70 | 135 | 7.0 | 8.0 | 0.00 | 0.00 | 0.00 | 67 | 1002.2 |
| 20260508120600 | 70 | 180 | 7.0 | 9.0 | 0.00 | 0.00 | 0.00 | 67 | 1002.2 |
| 20260508120058 | 70 | 180 | 7.0 | 7.0 | 0.00 | 0.00 | 0.00 | 67 | 1002.2 |
| 20260508115555 | 70 | 180 | 7.0 | 10.0 | 0.00 | 0.00 | 0.00 | 67 | 1001.9 |
| 20260508115051 | 70 | 180 | 7.0 | 8.0 | 0.00 | 0.00 | 0.00 | 67 | 1002.2 |
| 20260508114549 | 70 | 270 | 10.0 | 13.0 | 0.00 | 0.00 | 0.00 | 67 | 1001.9 |
| 20260508114045 | 70 | 270 | 9.0 | 11.0 | 0.00 | 0.00 | 0.00 | 67 | 1002.2 |
| 20260508113542 | 70 | 180 | 8.0 | 10.0 | 0.00 | 0.00 | 0.00 | 67 | 1001.9 |
| 20260508113040 | 71 | 180 | 10.0 | 13.0 | 0.00 | 0.00 | 0.00 | 67 | 1001.9 |
| 20260508112536 | 71 | 180 | 8.0 | 11.0 | 0.00 | 0.00 | 0.00 | 67 | 1002.2 |
| 20260508112033 | 71 | 270 | 7.0 | 8.0 | 0.00 | 0.00 | 0.00 | 67 | 1002.2 |
| 20260508111530 | 71 | 225 | 11.0 | 13.0 | 0.00 | 0.00 | 0.00 | 67 | 1001.9 |
| 20260508111027 | 71 | 180 | 7.0 | 8.0 | 0.00 | 0.00 | 0.00 | 67 | 1002.2 |
| 20260508110525 | 71 | 270 | 4.0 | 5.0 | 0.00 | 0.00 | 0.00 | 67 | 1001.9 |
| 20260508110021 | 71 | 180 | 6.0 | 9.0 | 0.00 | 0.00 | 0.00 | 67 | 1002.2 |
| 20260508105516 | 71 | 180 | 8.0 | 11.0 | 0.00 | 0.00 | 0.00 | 67 | 1001.9 |
| 20260508105014 | 71 | 180 | 4.0 | 5.0 | 0.00 | 0.00 | 0.00 | 67 | 1001.9 |
| 20260508104511 | 71 | 180 | 4.0 | 5.0 | 0.00 | 0.00 | 0.00 | 67 | 1001.9 |
| 20260508104007 | 71 | 180 | 5.0 | 6.0 | 0.00 | 0.00 | 0.00 | 67 | 1001.9 |
| 20260508103504 | 71 | 225 | 3.0 | 5.0 | 0.00 | 0.00 | 0.00 | 67 | 1001.9 |
| 20260508103001 | 71 | 45 | 3.0 | 5.0 | 0.00 | 0.00 | 0.00 | 67 | 1001.5 |
| 20260508102500 | 71 | 270 | 2.0 | 3.0 | 0.00 | 0.00 | 0.00 | 66 | 1001.5 |
| 20260508101956 | 71 | 135 | 5.0 | 7.0 | 0.00 | 0.00 | 0.00 | 66 | 1001.9 |
| 20260508101454 | 71 | 225 | 5.0 | 8.0 | 0.00 | 0.00 | 0.00 | 66 | 1001.9 |
| 20260508100951 | 72 | 225 | 4.0 | 6.0 | 0.00 | 0.00 | 0.00 | 66 | 1001.5 |
| 20260508100450 | 72 | 270 | 5.0 | 7.0 | 0.00 | 0.00 | 0.00 | 65 | 1001.5 |
| 20260508095945 | 72 | 180 | 4.0 | 5.0 | 0.00 | 0.00 | 0.00 | 65 | 1001.2 |
| 20260508095443 | 72 | 180 | 6.0 | 7.0 | 0.00 | 0.00 | 0.00 | 65 | 1001.2 |
| 20260508094940 | 72 | 315 | 1.0 | 2.0 | 0.00 | 0.00 | 0.00 | 64 | 1001.5 |
| 20260508094437 | 73 | 180 | 4.0 | 5.0 | 0.00 | 0.00 | 0.00 | 64 | 1001.5 |
| 20260508093933 | 73 | 135 | 5.0 | 5.0 | 0.00 | 0.00 | 0.00 | 64 | 1001.5 |
| 20260508093431 | 73 | 90 | 5.0 | 10.0 | 0.00 | 0.00 | 0.00 | 63 | 1001.2 |
| 20260508092928 | 73 | 135 | 5.0 | 8.0 | 0.00 | 0.00 | 0.00 | 63 | 1001.5 |
| 20260508092426 | 74 | 225 | 5.0 | 8.0 | 0.00 | 0.00 | 0.00 | 61 | 1001.9 |
| 20260508091924 | 74 | 180 | 6.0 | 11.0 | 0.00 | 0.00 | 0.00 | 61 | 1001.2 |
| 20260508091421 | 74 | 270 | 5.0 | 7.0 | 0.00 | 0.00 | 0.00 | 61 | 1001.2 |
| 20260508090918 | 75 | 45 | 5.0 | 7.0 | 0.00 | 0.00 | 0.00 | 61 | 1001.2 |
| 20260508090417 | 75 | 135 | 4.0 | 5.0 | 0.00 | 0.00 | 0.00 | 61 | 1001.2 |
| 20260508085912 | 75 | 180 | 8.0 | 10.0 | 0.00 | 0.00 | 0.00 | 61 | 1001.2 |
| 20260508085409 | 75 | 135 | 7.0 | 10.0 | 0.00 | 0.00 | 0.00 | 61 | 1001.2 |
| 20260508084906 | 75 | 225 | 5.0 | 6.0 | 0.00 | 0.00 | 0.00 | 61 | 1001.2 |
| 20260508084402 | 75 | 135 | 7.0 | 10.0 | 0.00 | 0.00 | 0.00 | 61 | 1001.5 |
| 20260508083900 | 75 | 45 | 2.0 | 3.0 | 0.00 | 0.00 | 0.00 | 62 | 1001.5 |
| 20260508083358 | 75 | 270 | 3.0 | 4.0 | 0.00 | 0.00 | 0.00 | 61 | 1001.2 |
| 20260508082857 | 75 | 45 | 4.0 | 5.0 | 0.00 | 0.00 | 0.00 | 61 | 1001.5 |
| 20260508082355 | 76 | 180 | 5.0 | 8.0 | 0.00 | 0.00 | 0.00 | 61 | 1001.2 |
| 20260508081852 | 76 | 135 | 5.0 | 6.0 | 0.00 | 0.00 | 0.00 | 61 | 1001.2 |
| 20260508081348 | 76 | 135 | 8.0 | 10.0 | 0.00 | 0.00 | 0.00 | 61 | 1001.5 |
| 20260508080846 | 76 | 180 | 4.0 | 6.0 | 0.00 | 0.00 | 0.00 | 61 | 1001.5 |
| 20260508080343 | 76 | 90 | 4.0 | 5.0 | 0.00 | 0.00 | 0.00 | 61 | 1001.5 |
| 20260508075840 | 76 | 90 | 4.0 | 5.0 | 0.00 | 0.00 | 0.00 | 60 | 1001.5 |
| 20260508075337 | 76 | 135 | 4.0 | 5.0 | 0.00 | 0.00 | 0.00 | 60 | 1001.5 |
| 20260508074835 | 77 | 135 | 5.0 | 6.0 | 0.00 | 0.00 | 0.00 | 60 | 1001.9 |
| 20260508074332 | 77 | 180 | 7.0 | 9.0 | 0.00 | 0.00 | 0.00 | 60 | 1002.2 |
| 20260508073828 | 77 | 45 | 2.0 | 4.0 | 0.00 | 0.00 | 0.00 | 60 | 1001.9 |
| 20260508073327 | 77 | 270 | 2.0 | 2.0 | 0.00 | 0.00 | 0.00 | 60 | 1001.9 |
| 20260508072822 | 77 | 180 | 5.0 | 8.0 | 0.00 | 0.00 | 0.00 | 60 | 1001.9 |
| 20260508072319 | 77 | 180 | 2.0 | 2.0 | 0.00 | 0.00 | 0.00 | 60 | 1001.9 |
| 20260508071817 | 77 | 225 | 5.0 | 7.0 | 0.00 | 0.00 | 0.00 | 60 | 1001.9 |
| 20260508071315 | 77 | 180 | 5.0 | 6.0 | 0.00 | 0.00 | 0.00 | 61 | 1002.2 |
| 20260508070812 | 78 | 180 | 5.0 | 8.0 | 0.00 | 0.00 | 0.00 | 61 | 1002.2 |
| 20260508070311 | 78 | 180 | 1.0 | 2.0 | 0.00 | 0.00 | 0.00 | 61 | 1002.2 |
| 20260508065807 | 78 | 270 | 7.0 | 7.0 | 0.00 | 0.00 | 0.00 | 61 | 1002.6 |
| 20260508065307 | 78 | 315 | 2.0 | 4.0 | 0.00 | 0.00 | 0.00 | 62 | 1002.2 |
| 20260508064803 | 78 | 0 | 3.0 | 5.0 | 0.00 | 0.00 | 0.00 | 62 | 1002.6 |
| 20260508064301 | 78 | 90 | 6.0 | 7.0 | 0.00 | 0.00 | 0.00 | 62 | 1002.2 |
| 20260508063758 | 78 | 180 | 2.0 | 2.0 | 0.00 | 0.00 | 0.00 | 62 | 1002.2 |
| 20260508063256 | 78 | 90 | 3.0 | 5.0 | 0.00 | 0.00 | 0.00 | 62 | 1002.6 |
| 20260508062753 | 78 | 135 | 4.0 | 6.0 | 0.00 | 0.00 | 0.00 | 63 | 1002.6 |
| 20260508062250 | 79 | 180 | 3.0 | 5.0 | 0.00 | 0.00 | 0.00 | 63 | 1002.6 |
| 20260508061747 | 79 | 180 | 1.0 | 2.0 | 0.00 | 0.00 | 0.00 | 63 | 1002.6 |
| 20260508061244 | 79 | 180 | 3.0 | 4.0 | 0.00 | 0.00 | 0.00 | 63 | 1002.6 |
| 20260508060741 | 79 | 180 | 2.0 | 2.0 | 0.00 | 0.00 | 0.00 | 64 | 1002.6 |
| 20260508060239 | 79 | 180 | 1.0 | 2.0 | 0.00 | 0.00 | 0.00 | 64 | 1002.6 |
| 20260508055734 | 79 | 180 | 4.0 | 5.0 | 0.00 | 0.00 | 0.00 | 64 | 1002.6 |
| 20260508055231 | 79 | 270 | 5.0 | 6.0 | 0.00 | 0.00 | 0.00 | 65 | 1002.9 |
| 20260508054727 | 79 | 180 | 2.0 | 4.0 | 0.00 | 0.00 | 0.00 | 65 | 1002.9 |
| 20260508054226 | 78 | 180 | 3.0 | 3.0 | 0.00 | 0.00 | 0.00 | 66 | 1002.9 |
| 20260508053722 | 78 | 180 | 2.0 | 4.0 | 0.00 | 0.00 | 0.00 | 66 | 1003.3 |
| 20260508053220 | 78 | 180 | 7.0 | 8.0 | 0.00 | 0.00 | 0.00 | 66 | 1003.3 |
| 20260508052717 | 78 | 90 | 6.0 | 7.0 | 0.00 | 0.00 | 0.00 | 67 | 1003.7 |
| 20260508052214 | 77 | 180 | 3.0 | 3.0 | 0.00 | 0.00 | 0.00 | 68 | 1003.7 |
| 20260508051710 | 77 | 45 | 3.0 | 4.0 | 0.00 | 0.00 | 0.00 | 68 | 1003.7 |
| 20260508051205 | 77 | 90 | 4.0 | 5.0 | 0.00 | 0.00 | 0.00 | 68 | 1004.0 |
| 20260508050702 | 77 | 90 | 2.0 | 3.0 | 0.00 | 0.00 | 0.00 | 68 | 1004.0 |
| 20260508050200 | 76 | 45 | 4.0 | 5.0 | 0.00 | 0.00 | 0.00 | 68 | 1003.7 |
| 20260508045654 | 76 | 45 | 1.0 | 2.0 | 0.00 | 0.00 | 0.00 | 68 | 1004.4 |
| 20260508045153 | 76 | 45 | 3.0 | 5.0 | 0.00 | 0.00 | 0.00 | 69 | 1004.4 |
| 20260508044650 | 76 | 45 | 1.0 | 2.0 | 0.00 | 0.00 | 0.00 | 69 | 1004.4 |
| 20260508044146 | 76 | 90 | 1.0 | 2.0 | 0.00 | 0.00 | 0.00 | 69 | 1004.4 |
| 20260508043642 | 76 | 180 | 3.0 | 4.0 | 0.00 | 0.00 | 0.00 | 69 | 1004.4 |
| 20260508043140 | 75 | 90 | 4.0 | 7.0 | 0.00 | 0.00 | 0.00 | 70 | 1004.4 |
| 20260508042637 | 75 | 45 | 3.0 | 5.0 | 0.00 | 0.00 | 0.00 | 70 | 1004.7 |
| 20260508042134 | 75 | 90 | 3.0 | 4.0 | 0.00 | 0.00 | 0.00 | 70 | 1004.4 |
| 20260508041630 | 75 | 45 | 5.0 | 5.0 | 0.00 | 0.00 | 0.00 | 70 | 1004.7 |
| 20260508041127 | 75 | 270 | 1.0 | 1.0 | 0.00 | 0.00 | 0.00 | 70 | 1005.4 |
| 20260508040624 | 75 | 270 | 2.0 | 2.0 | 0.00 | 0.00 | 0.00 | 70 | 1005.4 |
| 20260508040121 | 75 | 45 | 2.0 | 3.0 | 0.00 | 0.00 | 0.00 | 69 | 1005.4 |
| 20260508035618 | 75 | 45 | 5.0 | 7.0 | 0.00 | 0.00 | 0.00 | 69 | 1005.4 |
| 20260508035116 | 75 | 90 | 3.0 | 5.0 | 0.00 | 0.00 | 0.00 | 69 | 1005.4 |
| 20260508034612 | 75 | 0 | 3.0 | 4.0 | 0.00 | 0.00 | 0.00 | 69 | 1005.7 |
| 20260508034109 | 75 | 0 | 2.0 | 4.0 | 0.00 | 0.00 | 0.00 | 69 | 1005.4 |
| 20260508033607 | 75 | 45 | 3.0 | 4.0 | 0.00 | 0.00 | 0.00 | 69 | 1005.4 |
| 20260508033105 | 76 | 45 | 4.0 | 5.0 | 0.00 | 0.00 | 0.00 | 69 | 1005.7 |
| 20260508032601 | 76 | 270 | 2.0 | 2.0 | 0.00 | 0.00 | 0.00 | 69 | 1005.4 |
| 20260508032059 | 76 | 0 | 3.0 | 4.0 | 0.00 | 0.00 | 0.00 | 69 | 1005.7 |
| 20260508031556 | 76 | 315 | 1.0 | 2.0 | 0.00 | 0.00 | 0.00 | 69 | 1005.7 |
| 20260508031052 | 76 | 0 | 2.0 | 3.0 | 0.00 | 0.00 | 0.00 | 69 | 1006.0 |
| 20260508030548 | 75 | 270 | 3.0 | 5.0 | 0.00 | 0.00 | 0.00 | 69 | 1006.4 |
| 20260508030047 | 75 | 0 | 1.0 | 2.0 | 0.00 | 0.00 | 0.00 | 69 | 1006.4 |
| 20260508025542 | 75 | 45 | 1.0 | 2.0 | 0.00 | 0.00 | 0.00 | 69 | 1006.4 |
| 20260508025039 | 75 | 0 | 1.0 | 2.0 | 0.00 | 0.00 | 0.00 | 70 | 1006.4 |
| 20260508024535 | 75 | 45 | 2.0 | 2.0 | 0.00 | 0.00 | 0.00 | 70 | 1006.4 |
| 20260508024033 | 75 | 315 | 1.0 | 2.0 | 0.00 | 0.00 | 0.00 | 70 | 1006.4 |
| 20260508023529 | 75 | 315 | 3.0 | 5.0 | 0.00 | 0.00 | 0.00 | 70 | 1006.4 |
| 20260508023027 | 74 | 315 | 4.0 | 5.0 | 0.00 | 0.00 | 0.00 | 70 | 1007.1 |
| 20260508022522 | 74 | 270 | 3.0 | 4.0 | 0.00 | 0.00 | 0.00 | 70 | 1007.1 |
| 20260508022019 | 74 | 270 | 3.0 | 5.0 | 0.00 | 0.00 | 0.00 | 70 | 1007.1 |
| 20260508021515 | 74 | 225 | 0.0 | 1.0 | 0.00 | 0.00 | 0.00 | 70 | 1006.4 |
| 20260508021011 | 74 | 270 | 4.0 | 6.0 | 0.00 | 0.00 | 0.00 | 70 | 1006.7 |
| 20260508020509 | 74 | 0 | 4.0 | 5.0 | 0.00 | 0.00 | 0.00 | 70 | 1006.7 |
| 20260508020007 | 74 | 180 | 2.0 | 2.0 | 0.00 | 0.00 | 0.00 | 70 | 1007.1 |
| 20260508015504 | 74 | 270 | 1.0 | 2.0 | 0.00 | 0.00 | 0.00 | 70 | 1007.1 |
| 20260508015001 | 74 | 0 | 4.0 | 5.0 | 0.00 | 0.00 | 0.00 | 70 | 1006.7 |
| 20260508014457 | 74 | 315 | 3.0 | 5.0 | 0.00 | 0.00 | 0.00 | 70 | 1006.7 |
| 20260508013953 | 74 | 270 | 2.0 | 2.0 | 0.00 | 0.00 | 0.00 | 70 | 1006.7 |
| 20260508013449 | 74 | 0 | 4.0 | 5.0 | 0.00 | 0.00 | 0.00 | 71 | 1006.7 |
| 20260508012947 | 74 | 270 | 3.0 | 3.0 | 0.00 | 0.00 | 0.00 | 71 | 1007.1 |
| 20260508012444 | 74 | 270 | 3.0 | 4.0 | 0.00 | 0.00 | 0.00 | 71 | 1006.7 |
| 20260508011941 | 74 | 0 | 3.0 | 4.0 | 0.00 | 0.00 | 0.00 | 71 | 1007.1 |
| 20260508011439 | 74 | 270 | 2.0 | 2.0 | 0.00 | 0.00 | 0.00 | 71 | 1007.1 |
| 20260508010936 | 74 | 0 | 3.0 | 4.0 | 0.00 | 0.00 | 0.00 | 71 | 1006.7 |
| 20260508010433 | 74 | 270 | 6.0 | 7.0 | 0.00 | 0.00 | 0.00 | 71 | 1006.7 |
| 20260508005930 | 74 | 0 | 2.0 | 2.0 | 0.00 | 0.00 | 0.00 | 72 | 1007.1 |
| 20260508005427 | 73 | 0 | 5.0 | 6.0 | 0.00 | 0.00 | 0.00 | 73 | 1007.1 |
| 20260508004923 | 73 | 0 | 2.0 | 3.0 | 0.00 | 0.00 | 0.00 | 73 | 1007.4 |
| 20260508004420 | 73 | 270 | 3.0 | 4.0 | 0.00 | 0.00 | 0.00 | 73 | 1007.4 |
| 20260508003916 | 73 | 180 | 1.0 | 2.0 | 0.00 | 0.00 | 0.00 | 73 | 1007.4 |
| 20260508003413 | 73 | 0 | 1.0 | 2.0 | 0.00 | 0.00 | 0.00 | 73 | 1007.4 |
| 20260508002911 | 73 | 0 | 2.0 | 3.0 | 0.00 | 0.00 | 0.00 | 73 | 1007.7 |
| 20260508002407 | 73 | 0 | 2.0 | 2.0 | 0.00 | 0.00 | 0.00 | 73 | 1007.7 |
| 20260508001903 | 73 | 0 | 2.0 | 2.0 | 0.00 | 0.00 | 0.00 | 74 | 1007.7 |
| 20260508001359 | 73 | 45 | 2.0 | 2.0 | 0.00 | 0.00 | 0.00 | 74 | 1008.1 |
| 20260508000856 | 0 | 270 | 3.0 | 3.0 | 0.00 | 0.00 | 0.00 | 1008.1 | |
| 20260508000352 | 0 | 270 | 5.0 | 6.0 | 0.00 | 0.00 | 0.00 | 1008.1 | |
| 20260507235848 | 72 | 90 | 1.0 | 2.0 | 0.00 | 0.00 | 0.00 | 77 | 1007.7 |
| 20260507235346 | 72 | 0 | 2.0 | 2.0 | 0.00 | 0.00 | 0.00 | 77 | 1008.1 |
| 20260507234843 | 72 | 270 | 2.0 | 3.0 | 0.00 | 0.00 | 0.00 | 77 | 1008.1 |
| 20260507234340 | 72 | 0 | 1.0 | 2.0 | 0.00 | 0.00 | 0.00 | 77 | 1007.7 |
| 20260507233836 | 72 | 225 | 3.0 | 5.0 | 0.00 | 0.00 | 0.00 | 77 | 1008.1 |
| 20260507233334 | 72 | 315 | 1.0 | 2.0 | 0.00 | 0.00 | 0.00 | 77 | 1008.4 |
| 20260507232832 | 71 | 270 | 3.0 | 3.0 | 0.00 | 0.00 | 0.00 | 77 | 1008.4 |
| 20260507232328 | 71 | 315 | 1.0 | 2.0 | 0.00 | 0.00 | 0.00 | 77 | 1008.1 |
| 20260507231826 | 71 | 315 | 2.0 | 2.0 | 0.00 | 0.00 | 0.00 | 77 | 1008.4 |
| 20260507231322 | 71 | 90 | 1.0 | 2.0 | 0.00 | 0.00 | 0.00 | 76 | 1008.4 |
| 20260507230818 | 71 | 90 | 0.0 | 1.0 | 0.00 | 0.00 | 0.00 | 76 | 1008.1 |
| 20260507230316 | 71 | 0 | 4.0 | 5.0 | 0.00 | 0.00 | 0.00 | 77 | 1008.1 |
| 20260507225815 | 70 | 270 | 0.0 | 1.0 | 0.00 | 0.00 | 0.00 | 78 | 1008.1 |
| 20260507225312 | 70 | 0 | 1.0 | 2.0 | 0.00 | 0.00 | 0.00 | 78 | 1008.1 |
| 20260507224808 | 70 | 315 | 3.0 | 4.0 | 0.00 | 0.00 | 0.00 | 79 | 1008.4 |
| 20260507224305 | 69 | 0 | 0.0 | 2.0 | 0.00 | 0.00 | 0.00 | 80 | 1008.4 |
| 20260507223801 | 69 | 270 | 0.0 | 1.0 | 0.00 | 0.00 | 0.00 | 80 | 1008.4 |
| 20260507223257 | 69 | 270 | 0.0 | 0.0 | 0.00 | 0.00 | 0.00 | 80 | 1008.4 |
| 20260507222754 | 67 | 270 | 1.0 | 2.0 | 0.00 | 0.00 | 0.00 | 82 | 1008.8 |
| 20260507222250 | 67 | 0 | 1.0 | 2.0 | 0.00 | 0.00 | 0.00 | 82 | 1008.4 |
| 20260507221748 | 67 | 270 | 2.0 | 2.0 | 0.00 | 0.00 | 0.00 | 82 | 1008.8 |
| 20260507221244 | 67 | 270 | 3.0 | 4.0 | 0.00 | 0.00 | 0.00 | 82 | 1008.4 |
| 20260507220740 | 66 | 0 | 1.0 | 2.0 | 0.00 | 0.00 | 0.00 | 83 | 1008.8 |
| 20260507220239 | 66 | 270 | 2.0 | 2.0 | 0.00 | 0.00 | 0.00 | 84 | 1008.4 |
| 20260507215734 | 66 | 0 | 1.0 | 2.0 | 0.00 | 0.00 | 0.00 | 85 | 1008.8 |
| 20260507215232 | 66 | 270 | 3.0 | 3.0 | 0.00 | 0.00 | 0.00 | 85 | 1008.8 |
| 20260507214729 | 65 | 0 | 2.0 | 3.0 | 0.00 | 0.00 | 0.00 | 86 | 1008.8 |
| 20260507214226 | 65 | 270 | 1.0 | 2.0 | 0.00 | 0.00 | 0.00 | 87 | 1008.8 |
| 20260507213721 | 65 | 315 | 1.0 | 2.0 | 0.00 | 0.00 | 0.00 | 87 | 1008.8 |
| 20260507213219 | 64 | 315 | 1.0 | 2.0 | 0.00 | 0.00 | 0.00 | 87 | 1008.8 |
| 20260507212715 | 64 | 270 | 3.0 | 3.0 | 0.00 | 0.00 | 0.00 | 88 | 1008.8 |
| 20260507212212 | 64 | 270 | 3.0 | 3.0 | 0.00 | 0.00 | 0.00 | 88 | 1008.8 |
| 20260507211709 | 64 | 270 | 1.0 | 2.0 | 0.00 | 0.00 | 0.00 | 88 | 1008.8 |
| 20260507211204 | 64 | 270 | 2.0 | 2.0 | 0.00 | 0.00 | 0.00 | 88 | 1008.8 |
| 20260507210702 | 63 | 270 | 2.0 | 3.0 | 0.00 | 0.00 | 0.00 | 89 | 1008.4 |
| 20260507210158 | 63 | 270 | 2.0 | 3.0 | 0.00 | 0.00 | 0.00 | 89 | 1008.8 |
| 20260507205655 | 63 | 270 | 3.0 | 4.0 | 0.00 | 0.00 | 0.00 | 89 | 1008.8 |
| 20260507205151 | 63 | 270 | 0.0 | 1.0 | 0.00 | 0.00 | 0.00 | 90 | 1008.8 |
| 20260507204648 | 63 | 270 | 3.0 | 3.0 | 0.00 | 0.00 | 0.00 | 90 | 1008.4 |
| 20260507204146 | 63 | 270 | 0.0 | 0.0 | 0.00 | 0.00 | 0.00 | 91 | 1008.4 |
| 20260507203643 | 63 | 315 | 1.0 | 2.0 | 0.00 | 0.00 | 0.00 | 92 | 1008.4 |
| 20260507203141 | 62 | 0 | 2.0 | 3.0 | 0.00 | 0.00 | 0.00 | 92 | 1008.8 |
| 20260507202636 | 62 | 0 | 0.0 | 0.0 | 0.00 | 0.00 | 0.00 | 92 | 1008.8 |
| 20260507202132 | 62 | 0 | 0.0 | 0.0 | 0.00 | 0.00 | 0.00 | 92 | 1008.4 |
| 20260507201627 | 62 | 135 | 0.0 | 0.0 | 0.00 | 0.00 | 0.00 | 92 | 1008.8 |
| 20260507201125 | 62 | 270 | 0.0 | 0.0 | 0.00 | 0.00 | 0.00 | 92 | 1008.4 |
| 20260507200621 | 62 | 270 | 0.0 | 1.0 | 0.00 | 0.00 | 0.00 | 92 | 1008.8 |
| 20260507200117 | 62 | 180 | 0.0 | 0.0 | 0.00 | 0.00 | 0.00 | 92 | 1008.4 |
| 20260507195614 | 62 | 270 | 1.0 | 2.0 | 0.00 | 0.00 | 0.00 | 92 | 1008.4 |
| 20260507195111 | 62 | 270 | 1.0 | 1.0 | 0.00 | 0.00 | 0.00 | 91 | 1008.4 |
| 20260507194608 | 62 | 315 | 2.0 | 2.0 | 0.00 | 0.00 | 0.00 | 91 | 1008.4 |
| 20260507194103 | 62 | 225 | 1.0 | 2.0 | 0.00 | 0.00 | 0.00 | 91 | 1008.1 |
| 20260507193601 | 62 | 180 | 1.0 | 2.0 | 0.00 | 0.00 | 0.00 | 91 | 1008.1 |
| 20260507193057 | 62 | 270 | 0.0 | 0.0 | 0.00 | 0.00 | 0.00 | 91 | 1008.1 |
| 20260507192554 | 62 | 270 | 0.0 | 0.0 | 0.00 | 0.00 | 0.00 | 91 | 1008.1 |
| 20260507192051 | 62 | 225 | 2.0 | 2.0 | 0.00 | 0.00 | 0.00 | 91 | 1008.1 |
| 20260507191546 | 62 | 270 | 1.0 | 2.0 | 0.00 | 0.00 | 0.00 | 91 | 1008.1 |
| 20260507191043 | 62 | 270 | 2.0 | 3.0 | 0.00 | 0.00 | 0.00 | 91 | 1008.1 |
| 20260507190541 | 62 | 180 | 2.0 | 2.0 | 0.00 | 0.00 | 0.00 | 91 | 1008.4 |
| 20260507190039 | 62 | 270 | 1.0 | 1.0 | 0.00 | 0.00 | 0.00 | 91 | 1008.4 |
| 20260507185537 | 62 | 270 | 2.0 | 2.0 | 0.00 | 0.00 | 0.00 | 91 | 1008.1 |
| 20260507185033 | 62 | 180 | 0.0 | 1.0 | 0.00 | 0.00 | 0.00 | 91 | 1008.1 |
| 20260507184532 | 62 | 180 | 1.0 | 2.0 | 0.00 | 0.00 | 0.00 | 91 | 1008.1 |
| 20260507184029 | 62 | 90 | 0.0 | 0.0 | 0.00 | 0.00 | 0.00 | 91 | 1008.4 |
| 20260507183525 | 62 | 180 | 0.0 | 1.0 | 0.00 | 0.00 | 0.00 | 91 | 1008.4 |
| 20260507183022 | 62 | 90 | 0.0 | 1.0 | 0.00 | 0.00 | 0.00 | 91 | 1008.1 |
| 20260507182519 | 62 | 270 | 0.0 | 0.0 | 0.00 | 0.00 | 0.00 | 91 | 1008.1 |
| 20260507182014 | 62 | 270 | 1.0 | 2.0 | 0.00 | 0.00 | 0.00 | 91 | 1008.4 |
| 20260507181512 | 62 | 270 | 3.0 | 4.0 | 0.00 | 0.00 | 0.00 | 91 | 1008.8 |
| 20260507181008 | 62 | 270 | 1.0 | 2.0 | 0.00 | 0.00 | 0.00 | 91 | 1008.1 |
| 20260507180504 | 62 | 270 | 0.0 | 0.0 | 0.00 | 0.00 | 0.00 | 91 | 1008.4 |
| 20260507180000 | 62 | 270 | 0.0 | 0.0 | 0.00 | 0.00 | 0.00 | 91 | 1008.1 |
| 20260507175457 | 62 | 270 | 1.0 | 2.0 | 0.00 | 0.00 | 0.00 | 91 | 1008.4 |
| 20260507174955 | 62 | 270 | 1.0 | 2.0 | 0.00 | 0.00 | 0.00 | 90 | 1008.4 |
| 20260507174452 | 62 | 135 | 0.0 | 1.0 | 0.00 | 0.00 | 0.00 | 90 | 1008.4 |
| 20260507173949 | 62 | 225 | 2.0 | 2.0 | 0.00 | 0.00 | 0.00 | 90 | 1008.1 |
| 20260507173446 | 62 | 180 | 1.0 | 1.0 | 0.00 | 0.00 | 0.00 | 90 | 1008.1 |
| 20260507172943 | 62 | 135 | 1.0 | 2.0 | 0.00 | 0.00 | 0.00 | 90 | 1008.4 |
| 20260507172439 | 62 | 0 | 1.0 | 1.0 | 0.00 | 0.00 | 0.00 | 90 | 1008.4 |
| 20260507171936 | 62 | 135 | 2.0 | 2.0 | 0.00 | 0.00 | 0.00 | 90 | 1008.4 |
| 20260507171432 | 62 | 135 | 2.0 | 2.0 | 0.00 | 0.00 | 0.00 | 90 | 1008.4 |
| 20260507170930 | 63 | 315 | 1.0 | 2.0 | 0.00 | 0.00 | 0.00 | 90 | 1008.4 |
| 20260507170426 | 63 | 270 | 0.0 | 0.0 | 0.00 | 0.00 | 0.00 | 90 | 1008.4 |
| 20260507165922 | 63 | 135 | 2.0 | 2.0 | 0.00 | 0.00 | 0.00 | 89 | 1008.8 |
| 20260507165419 | 63 | 90 | 3.0 | 4.0 | 0.00 | 0.00 | 0.00 | 89 | 1008.4 |
| 20260507164914 | 63 | 0 | 0.0 | 0.0 | 0.00 | 0.00 | 0.00 | 89 | 1008.8 |
| 20260507164412 | 63 | 180 | 1.0 | 2.0 | 0.00 | 0.00 | 0.00 | 89 | 1008.8 |
| 20260507163909 | 63 | 180 | 0.0 | 2.0 | 0.00 | 0.00 | 0.00 | 88 | 1008.8 |
| 20260507163406 | 63 | 270 | 0.0 | 1.0 | 0.00 | 0.00 | 0.00 | 88 | 1008.8 |
| 20260507162903 | 63 | 270 | 3.0 | 3.0 | 0.00 | 0.00 | 0.00 | 88 | 1008.8 |
| 20260507162358 | 63 | 270 | 1.0 | 1.0 | 0.00 | 0.00 | 0.00 | 88 | 1008.8 |
| 20260507161856 | 63 | 270 | 0.0 | 0.0 | 0.00 | 0.00 | 0.00 | 88 | 1009.1 |
| 20260507161352 | 63 | 270 | 0.0 | 0.0 | 0.00 | 0.00 | 0.00 | 89 | 1008.8 |
| 20260507160849 | 63 | 180 | 0.0 | 0.0 | 0.00 | 0.00 | 0.00 | 89 | 1009.1 |
| 20260507160344 | 63 | 135 | 1.0 | 2.0 | 0.00 | 0.00 | 0.00 | 89 | 1009.1 |
| 20260507155841 | 63 | 45 | 2.0 | 3.0 | 0.00 | 0.00 | 0.00 | 88 | 1009.1 |
| 20260507155336 | 63 | 0 | 1.0 | 2.0 | 0.00 | 0.00 | 0.00 | 88 | 1009.4 |
| 20260507154833 | 63 | 315 | 0.0 | 0.0 | 0.00 | 0.00 | 0.00 | 88 | 1009.1 |